• In Kazakhstan
  • List of Countries
  • For 7 days
  • Water Temperature
  • Satellite Maps
  • Weather Map
  • News
  • Weather Widgets
  • user-avatar
    Login

    Hourly Weather Klagenfurt

    Today, 26 July, Wednesday

    Time Temperature Precipitation Wind Pressure Humidity
    00:00 +10°C° 0 mm 1 mps 683 mmHg 89%
    01:00 +10°C° 0 mm 1 mps 683 mmHg 90%
    02:00 +10°C° 0 mm 1 mps 683 mmHg 89%
    03:00 +10°C° 0 mm 1 mps 683 mmHg 89%
    04:00 +9°C° 0 mm 1 mps 683 mmHg 89%
    05:00 +11°C° 0 mm 1 mps 683 mmHg 86%
    06:00 +12°C° 0 mm 1 mps 683 mmHg 83%
    07:00 +11°C° 0 mm 0 mps 683 mmHg 82%
    08:00 +13°C° 0.1 mm 0 mps 683 mmHg 75%
    09:00 +15°C° 0.1 mm 0 mps 683 mmHg 68%
    10:00 +17°C° 0.1 mm 0 mps 684 mmHg 61%
    11:00 +20°C° 0.1 mm 1 mps 684 mmHg 58%
    12:00 +21°C° 0.1 mm 1 mps 684 mmHg 55%
    13:00 +22°C° 0.1 mm 1 mps 685 mmHg 52%
    14:00 +21°C° 0.4 mm 1 mps 685 mmHg 56%
    15:00 +20°C° 0.4 mm 1 mps 685 mmHg 61%
    16:00 +20°C° 0.4 mm 1 mps 685 mmHg 66%
    17:00 +18°C° 0.3 mm 1 mps 685 mmHg 71%
    18:00 +16°C° 0.3 mm 1 mps 685 mmHg 77%
    19:00 +14°C° 0.3 mm 0 mps 685 mmHg 82%
    20:00 +14°C° 0 mm 1 mps 685 mmHg 83%
    21:00 +13°C° 0 mm 1 mps 685 mmHg 84%
    22:00 +13°C° 0 mm 1 mps 686 mmHg 85%
    23:00 +12°C° 0 mm 1 mps 686 mmHg 85%

    Tomorrow, 27 July, Thursday

    Time Temperature Precipitation Wind Pressure Humidity
    00:00 +12°C° 0 mm 1 mps 686 mmHg 85%
    01:00 +12°C° 0 mm 1 mps 686 mmHg 85%
    02:00 +12°C° 0.1 mm 1 mps 686 mmHg 86%
    03:00 +11°C° 0.1 mm 1 mps 686 mmHg 87%
    04:00 +11°C° 0.1 mm 1 mps 686 mmHg 87%
    05:00 +12°C° 0 mm 1 mps 686 mmHg 85%
    06:00 +13°C° 0 mm 1 mps 687 mmHg 83%
    07:00 +14°C° 0 mm 1 mps 687 mmHg 81%
    08:00 +18°C° 0 mm 1 mps 688 mmHg 69%
    09:00 +21°C° 0 mm 1 mps 688 mmHg 58%
    10:00 +23°C° 0 mm 1 mps 689 mmHg 47%
    11:00 +24°C° 0 mm 1 mps 689 mmHg 46%
    12:00 +24°C° 0 mm 1 mps 689 mmHg 44%
    13:00 +24°C° 0 mm 1 mps 689 mmHg 43%
    14:00 +24°C° 0 mm 1 mps 688 mmHg 45%
    15:00 +24°C° 0 mm 1 mps 688 mmHg 47%
    16:00 +24°C° 0 mm 1 mps 688 mmHg 49%
    17:00 +22°C° 0 mm 1 mps 688 mmHg 57%
    18:00 +20°C° 0 mm 1 mps 688 mmHg 65%
    19:00 +18°C° 0 mm 1 mps 687 mmHg 73%
    20:00 +16°C° 0 mm 1 mps 688 mmHg 76%
    21:00 +15°C° 0 mm 1 mps 688 mmHg 78%
    22:00 +14°C° 0 mm 1 mps 688 mmHg 80%
    23:00 +13°C° 0 mm 1 mps 688 mmHg 81%

    Day after tomorrow, 28 July, Friday

    Time Temperature Precipitation Wind Pressure Humidity
    00:00 +13°C° 0 mm 1 mps 688 mmHg 81%
    01:00 +13°C° 0 mm 1 mps 688 mmHg 81%
    02:00 +13°C° 0 mm 1 mps 688 mmHg 81%
    03:00 +13°C° 0 mm 1 mps 688 mmHg 82%
    04:00 +12°C° 0 mm 1 mps 688 mmHg 82%
    05:00 +13°C° 0 mm 0 mps 688 mmHg 77%
    06:00 +15°C° 0 mm 0 mps 689 mmHg 73%
    07:00 +17°C° 0 mm 0 mps 689 mmHg 68%
    08:00 +19°C° 0 mm 0 mps 690 mmHg 61%
    09:00 +23°C° 0 mm 1 mps 690 mmHg 54%
    10:00 +25°C° 0 mm 1 mps 691 mmHg 47%
    11:00 +26°C° 0 mm 1 mps 691 mmHg 46%
    12:00 +26°C° 0 mm 1 mps 691 mmHg 45%
    13:00 +27°C° 0 mm 1 mps 691 mmHg 44%
    14:00 +27°C° 0 mm 2 mps 691 mmHg 45%
    15:00 +27°C° 0 mm 2 mps 691 mmHg 46%
    16:00 +27°C° 0 mm 2 mps 691 mmHg 47%
    17:00 +25°C° 0 mm 1 mps 691 mmHg 57%
    18:00 +23°C° 0 mm 1 mps 691 mmHg 66%
    19:00 +21°C° 0 mm 1 mps 691 mmHg 75%
    20:00 +20°C° 0 mm 1 mps 691 mmHg 79%
    21:00 +19°C° 0 mm 1 mps 691 mmHg 82%
    22:00 +16°C° 0 mm 1 mps 691 mmHg 86%
    23:00 +16°C° 0 mm 1 mps 692 mmHg 87%

    29 July, Saturday

    Time Temperature Precipitation Wind Pressure Humidity
    00:00 +15°C° 0 mm 1 mps 692 mmHg 88%
    01:00 +15°C° 0 mm 1 mps 692 mmHg 89%
    02:00 +15°C° 0 mm 1 mps 692 mmHg 90%
    03:00 +14°C° 0 mm 1 mps 692 mmHg 90%
    04:00 +13°C° 0 mm 0 mps 692 mmHg 90%
    05:00 +16°C° 0 mm 1 mps 692 mmHg 86%
    06:00 +18°C° 0 mm 1 mps 693 mmHg 81%
    07:00 +20°C° 0 mm 1 mps 693 mmHg 76%
    08:00 +22°C° 0 mm 1 mps 694 mmHg 69%
    09:00 +23°C° 0 mm 1 mps 694 mmHg 62%
    10:00 +25°C° 0 mm 1 mps 694 mmHg 54%
    11:00 +26°C° 0 mm 1 mps 694 mmHg 52%
    12:00 +27°C° 0 mm 2 mps 694 mmHg 50%
    13:00 +28°C° 0 mm 2 mps 694 mmHg 48%
    14:00 +28°C° 0.1 mm 2 mps 694 mmHg 49%
    15:00 +28°C° 0.1 mm 2 mps 694 mmHg 51%
    16:00 +28°C° 0.1 mm 2 mps 694 mmHg 53%
    17:00 +26°C° 0.3 mm 2 mps 693 mmHg 61%
    18:00 +24°C° 0.3 mm 1 mps 693 mmHg 69%
    19:00 +23°C° 0.3 mm 1 mps 693 mmHg 78%
    20:00 +21°C° 0.2 mm 1 mps 693 mmHg 81%
    21:00 +20°C° 0.2 mm 1 mps 693 mmHg 84%
    22:00 +19°C° 0.2 mm 1 mps 692 mmHg 88%
    23:00 +18°C° 0 mm 1 mps 692 mmHg 88%

    30 July, Sunday

    Time Temperature Precipitation Wind Pressure Humidity
    00:00 +18°C° 0 mm 1 mps 692 mmHg 89%
    01:00 +18°C° 0 mm 1 mps 692 mmHg 89%
    02:00 +16°C° 0.1 mm 1 mps 692 mmHg 89%
    03:00 +16°C° 0.1 mm 1 mps 691 mmHg 88%
    04:00 +16°C° 0.1 mm 1 mps 691 mmHg 88%
    05:00 +18°C° 0.4 mm 1 mps 691 mmHg 85%
    06:00 +18°C° 0.4 mm 0 mps 692 mmHg 82%
    07:00 +19°C° 0.4 mm 0 mps 692 mmHg 79%
    08:00 +23°C° 0.3 mm 1 mps 692 mmHg 71%
    09:00 +25°C° 0.3 mm 1 mps 693 mmHg 62%
    10:00 +27°C° 0.3 mm 1 mps 693 mmHg 54%
    11:00 +28°C° 0.8 mm 2 mps 693 mmHg 54%
    12:00 +28°C° 0.8 mm 2 mps 692 mmHg 55%
    13:00 +29°C° 0.8 mm 2 mps 692 mmHg 55%
    14:00 +28°C° 1 mm 2 mps 692 mmHg 56%
    15:00 +28°C° 1 mm 2 mps 692 mmHg 58%
    16:00 +28°C° 1 mm 2 mps 692 mmHg 59%
    17:00 +26°C° 0.2 mm 2 mps 692 mmHg 66%
    18:00 +25°C° 0.2 mm 1 mps 692 mmHg 73%
    19:00 +23°C° 0.2 mm 1 mps 691 mmHg 79%
    20:00 +22°C° 0.2 mm 1 mps 691 mmHg 83%
    21:00 +21°C° 0.2 mm 1 mps 692 mmHg 86%
    22:00 +20°C° 0.2 mm 1 mps 692 mmHg 89%
    23:00 +19°C° 0 mm 1 mps 692 mmHg 90%

    31 July, Monday

    Time Temperature Precipitation Wind Pressure Humidity
    00:00 +19°C° 0 mm 1 mps 691 mmHg 91%
    01:00 +18°C° 0 mm 1 mps 691 mmHg 92%
    02:00 +18°C° 0 mm 1 mps 691 mmHg 92%
    03:00 +18°C° 0 mm 1 mps 691 mmHg 92%
    04:00 +16°C° 0 mm 1 mps 691 mmHg 91%
    05:00 +19°C° 0 mm 1 mps 692 mmHg 87%
    06:00 +19°C° 0 mm 0 mps 692 mmHg 82%
    07:00 +20°C° 0 mm 0 mps 693 mmHg 77%
    08:00 +23°C° 0 mm 0 mps 693 mmHg 68%
    09:00 +25°C° 0 mm 0 mps 694 mmHg 59%
    10:00 +28°C° 0 mm 0 mps 694 mmHg 50%
    11:00 +31°C° 0 mm 1 mps 694 mmHg 47%
    12:00 +31°C° 0 mm 1 mps 694 mmHg 44%
    13:00 +32°C° 0 mm 1 mps 694 mmHg 41%
    14:00 +32°C° 0 mm 1 mps 693 mmHg 42%
    15:00 +31°C° 0 mm 2 mps 693 mmHg 42%
    16:00 +31°C° 0 mm 2 mps 693 mmHg 42%
    17:00 +29°C° 0 mm 1 mps 693 mmHg 52%
    18:00 +27°C° 0 mm 1 mps 692 mmHg 61%
    19:00 +25°C° 0 mm 1 mps 692 mmHg 70%
    20:00 +24°C° 0 mm 1 mps 692 mmHg 73%
    21:00 +22°C° 0 mm 1 mps 692 mmHg 76%
    22:00 +21°C° 0 mm 1 mps 692 mmHg 79%
    23:00 +20°C° 0 mm 1 mps 692 mmHg 80%
    Show more